When you browse on this site, cookies collect data to enhance your experience and personalize the content and advertising you see.
Visit our Privacy Policy to learn more. By continuing to use the site, you agree to this use of cookies and data.
  • In Latvia
  • List of Countries
  • For 7 days
  • Water Temperature
  • Weather Map
  • Weather Widgets
  • user-avatar
    Login

    Hourly Weather Erd

    Today, 17 September, Tuesday

    Time Temperature Precipitation Wind Pressure Humidity
    00:00 +22°C° 0.1 mm 1 mps 751 mmHg 52%
    01:00 +21°C° 0.1 mm 2 mps 751 mmHg 53%
    02:00 +20°C° 0 mm 2 mps 751 mmHg 55%
    03:00 +20°C° 0 mm 2 mps 751 mmHg 56%
    04:00 +20°C° 0 mm 2 mps 750 mmHg 58%
    05:00 +20°C° 0 mm 2 mps 750 mmHg 59%
    06:00 +20°C° 0 mm 3 mps 751 mmHg 61%
    07:00 +20°C° 0 mm 3 mps 751 mmHg 63%
    08:00 +21°C° 0 mm 4 mps 751 mmHg 61%
    09:00 +22°C° 0 mm 4 mps 751 mmHg 59%
    10:00 +23°C° 0 mm 5 mps 751 mmHg 57%
    11:00 +23°C° 0 mm 5 mps 751 mmHg 55%
    12:00 +24°C° 0 mm 6 mps 750 mmHg 52%
    13:00 +24°C° 0 mm 6 mps 750 mmHg 49%
    14:00 +24°C° 0 mm 6 mps 750 mmHg 49%
    15:00 +25°C° 0 mm 5 mps 749 mmHg 49%
    16:00 +25°C° 0 mm 5 mps 749 mmHg 50%
    17:00 +23°C° 0 mm 4 mps 749 mmHg 54%
    18:00 +21°C° 0 mm 3 mps 749 mmHg 58%
    19:00 +20°C° 0 mm 2 mps 749 mmHg 62%
    20:00 +20°C° 0 mm 3 mps 749 mmHg 62%
    21:00 +20°C° 0 mm 3 mps 749 mmHg 62%
    22:00 +20°C° 0 mm 3 mps 750 mmHg 61%
    23:00 +19°C° 0 mm 5 mps 750 mmHg 58%

    Tomorrow, 18 September, Wednesday

    Time Temperature Precipitation Wind Pressure Humidity
    00:00 +16°C° 0 mm 6 mps 751 mmHg 54%
    01:00 +15°C° 0 mm 7 mps 751 mmHg 51%
    02:00 +14°C° 0 mm 7 mps 752 mmHg 51%
    03:00 +12°C° 0 mm 7 mps 752 mmHg 51%
    04:00 +11°C° 0 mm 7 mps 753 mmHg 51%
    05:00 +11°C° 0 mm 7 mps 753 mmHg 50%
    06:00 +10°C° 0 mm 7 mps 754 mmHg 50%
    07:00 +10°C° 0 mm 7 mps 755 mmHg 49%
    08:00 +11°C° 0 mm 7 mps 755 mmHg 45%
    09:00 +14°C° 0 mm 6 mps 756 mmHg 40%
    10:00 +15°C° 0 mm 6 mps 756 mmHg 36%
    11:00 +16°C° 0 mm 5 mps 756 mmHg 34%
    12:00 +17°C° 0 mm 5 mps 756 mmHg 32%
    13:00 +19°C° 0 mm 5 mps 756 mmHg 30%
    14:00 +17°C° 0 mm 5 mps 756 mmHg 30%
    15:00 +17°C° 0 mm 5 mps 755 mmHg 30%
    16:00 +17°C° 0 mm 5 mps 755 mmHg 30%
    17:00 +17°C° 0 mm 4 mps 756 mmHg 34%
    18:00 +14°C° 0 mm 3 mps 756 mmHg 38%
    19:00 +13°C° 0 mm 3 mps 756 mmHg 43%
    20:00 +13°C° 0 mm 2 mps 757 mmHg 44%
    21:00 +12°C° 0 mm 2 mps 757 mmHg 46%
    22:00 +12°C° 0 mm 2 mps 757 mmHg 48%
    23:00 +10°C° 0 mm 2 mps 757 mmHg 50%

    Day after tomorrow, 19 September, Thursday

    Time Temperature Precipitation Wind Pressure Humidity
    00:00 +10°C° 0 mm 2 mps 757 mmHg 53%
    01:00 +10°C° 0 mm 2 mps 757 mmHg 55%
    02:00 +9°C° 0 mm 2 mps 757 mmHg 57%
    03:00 +9°C° 0 mm 2 mps 757 mmHg 59%
    04:00 +9°C° 0 mm 3 mps 757 mmHg 61%
    05:00 +9°C° 0 mm 3 mps 757 mmHg 60%
    06:00 +10°C° 0 mm 4 mps 757 mmHg 58%
    07:00 +10°C° 0 mm 4 mps 757 mmHg 57%
    08:00 +12°C° 0 mm 5 mps 758 mmHg 51%
    09:00 +13°C° 0 mm 5 mps 758 mmHg 45%
    10:00 +14°C° 0 mm 6 mps 758 mmHg 39%
    11:00 +15°C° 0 mm 6 mps 758 mmHg 37%
    12:00 +16°C° 0 mm 5 mps 758 mmHg 35%
    13:00 +16°C° 0 mm 5 mps 758 mmHg 33%
    14:00 +16°C° 0 mm 5 mps 758 mmHg 34%
    15:00 +16°C° 0 mm 5 mps 758 mmHg 35%
    16:00 +16°C° 0 mm 5 mps 758 mmHg 36%
    17:00 +15°C° 0 mm 4 mps 758 mmHg 40%
    18:00 +13°C° 0 mm 4 mps 758 mmHg 45%
    19:00 +11°C° 0 mm 3 mps 759 mmHg 49%
    20:00 +11°C° 0 mm 3 mps 759 mmHg 51%
    21:00 +11°C° 0 mm 3 mps 759 mmHg 53%
    22:00 +10°C° 0 mm 3 mps 759 mmHg 55%
    23:00 +10°C° 0 mm 3 mps 759 mmHg 57%

    20 September, Friday

    Time Temperature Precipitation Wind Pressure Humidity
    00:00 +10°C° 0 mm 3 mps 759 mmHg 59%
    01:00 +9°C° 0 mm 3 mps 759 mmHg 61%
    02:00 +9°C° 0 mm 3 mps 759 mmHg 65%
    03:00 +8°C° 0 mm 3 mps 759 mmHg 68%
    04:00 +8°C° 0 mm 2 mps 759 mmHg 71%
    05:00 +8°C° 0 mm 3 mps 759 mmHg 70%
    06:00 +9°C° 0 mm 3 mps 760 mmHg 68%
    07:00 +9°C° 0 mm 3 mps 760 mmHg 66%
    08:00 +11°C° 0 mm 3 mps 760 mmHg 57%
    09:00 +13°C° 0 mm 3 mps 760 mmHg 48%
    10:00 +17°C° 0 mm 3 mps 761 mmHg 38%
    11:00 +17°C° 0 mm 3 mps 760 mmHg 34%
    12:00 +18°C° 0 mm 3 mps 760 mmHg 30%
    13:00 +19°C° 0 mm 3 mps 760 mmHg 26%
    14:00 +19°C° 0 mm 3 mps 759 mmHg 27%
    15:00 +18°C° 0 mm 3 mps 759 mmHg 27%
    16:00 +18°C° 0 mm 3 mps 759 mmHg 27%
    17:00 +17°C° 0 mm 3 mps 759 mmHg 33%
    18:00 +14°C° 0 mm 3 mps 760 mmHg 38%
    19:00 +14°C° 0 mm 2 mps 760 mmHg 43%
    20:00 +13°C° 0 mm 2 mps 760 mmHg 45%
    21:00 +13°C° 0 mm 2 mps 760 mmHg 48%
    22:00 +12°C° 0 mm 2 mps 761 mmHg 50%
    23:00 +12°C° 0 mm 2 mps 761 mmHg 52%

    21 September, Saturday

    Time Temperature Precipitation Wind Pressure Humidity
    00:00 +10°C° 0 mm 2 mps 761 mmHg 54%
    01:00 +10°C° 0 mm 2 mps 761 mmHg 56%
    02:00 +9°C° 0 mm 2 mps 761 mmHg 57%
    03:00 +9°C° 0 mm 2 mps 761 mmHg 57%
    04:00 +9°C° 0 mm 2 mps 761 mmHg 58%
    05:00 +9°C° 0 mm 2 mps 761 mmHg 56%
    06:00 +10°C° 0 mm 2 mps 761 mmHg 55%
    07:00 +10°C° 0 mm 2 mps 761 mmHg 53%
    08:00 +12°C° 0 mm 3 mps 762 mmHg 48%
    09:00 +14°C° 0 mm 3 mps 762 mmHg 43%
    10:00 +17°C° 0 mm 3 mps 762 mmHg 38%
    11:00 +18°C° 0 mm 3 mps 762 mmHg 35%
    12:00 +19°C° 0 mm 3 mps 761 mmHg 33%
    13:00 +19°C° 0 mm 3 mps 761 mmHg 31%
    14:00 +19°C° 0 mm 2 mps 761 mmHg 31%
    15:00 +20°C° 0 mm 2 mps 760 mmHg 31%
    16:00 +20°C° 0 mm 2 mps 760 mmHg 31%
    17:00 +18°C° 0 mm 2 mps 760 mmHg 35%
    18:00 +16°C° 0 mm 2 mps 760 mmHg 39%
    19:00 +15°C° 0 mm 2 mps 760 mmHg 43%
    20:00 +14°C° 0 mm 2 mps 760 mmHg 44%
    21:00 +13°C° 0 mm 2 mps 761 mmHg 46%
    22:00 +13°C° 0 mm 2 mps 761 mmHg 48%
    23:00 +12°C° 0 mm 2 mps 761 mmHg 50%

    22 September, Sunday

    Time Temperature Precipitation Wind Pressure Humidity
    00:00 +12°C° 0 mm 1 mps 761 mmHg 51%
    01:00 +11°C° 0 mm 1 mps 761 mmHg 53%
    02:00 +11°C° 0 mm 1 mps 761 mmHg 54%
    03:00 +11°C° 0 mm 1 mps 761 mmHg 55%
    04:00 +10°C° 0 mm 1 mps 761 mmHg 56%
    05:00 +11°C° 0 mm 1 mps 761 mmHg 55%
    06:00 +12°C° 0 mm 1 mps 761 mmHg 53%
    07:00 +12°C° 0 mm 2 mps 761 mmHg 52%
    08:00 +14°C° 0 mm 2 mps 761 mmHg 45%
    09:00 +16°C° 0 mm 3 mps 761 mmHg 39%
    10:00 +18°C° 0 mm 3 mps 761 mmHg 33%
    11:00 +19°C° 0 mm 3 mps 761 mmHg 30%
    12:00 +20°C° 0 mm 3 mps 760 mmHg 27%
    13:00 +22°C° 0 mm 3 mps 760 mmHg 25%
    14:00 +22°C° 0 mm 3 mps 759 mmHg 25%
    15:00 +22°C° 0 mm 3 mps 759 mmHg 25%
    16:00 +22°C° 0 mm 3 mps 759 mmHg 25%
    17:00 +20°C° 0 mm 3 mps 759 mmHg 28%
    18:00 +18°C° 0 mm 3 mps 759 mmHg 31%
    19:00 +16°C° 0 mm 2 mps 759 mmHg 34%
    20:00 +16°C° 0 mm 2 mps 759 mmHg 34%
    21:00 +15°C° 0 mm 2 mps 759 mmHg 35%
    22:00 +14°C° 0 mm 2 mps 759 mmHg 36%
    23:00 +14°C° 0 mm 2 mps 759 mmHg 37%
    Show more